Temperature
15 14 14 14 14 13 13 13 13 13 13 13 12 12 12 12 12 12 11 11 10 10 9 9 9 8 8 8 8 8 8 8 8 8 8 8 8 9 9 9 9 9 9
15 14 14 13 13 13 13 13 13 13 13 12 12 12 12 12 12 11 11 10 10 9 9 9 8 8 8 8 7 7 7 7 7 8 8 7 7 7 7 7 7 7 8
14 14 13 13 13 13 13 13 12 12 12 12 12 12 12 12 12 11 11 10 9 9 8 8 8 8 8 7 7 6 6 6 7 7 7 6 6 6 6 6 6 6 6
14 13 13 13 13 13 13 12 12 12 12 12 12 12 12 12 11 11 10 10 9 9 8 8 8 7 7 7 7 6 6 5 6 6 6 5 5 5 5 5 5 5 5
13 13 13 13 13 12 12 12 12 12 12 12 12 12 12 11 11 10 10 9 8 8 8 7 7 7 6 6 6 6 6 5 5 5 4 4 4 3 3 3 3 3 4
13 13 13 13 13 12 12 12 12 12 12 12 12 12 11 11 10 10 9 8 8 7 7 7 6 6 6 6 6 5 5 5 4 4 3 3 2 2 2 2 2 2 3
13 13 13 13 12 12 12 12 12 12 12 12 12 11 11 10 10 9 9 8 7 7 6 6 6 5 5 5 5 5 5 4 4 2 2 1 1 1 1 1 1 1 2
13 13 13 13 12 12 12 12 12 12 12 12 11 11 11 10 9 9 8 7 7 6 6 5 5 5 4 4 4 4 4 3 2 1 1 0 0 -0 -0 0 0 1 1
13 13 13 13 13 12 12 12 12 12 11 11 11 11 11 10 9 8 8 7 6 6 5 5 4 4 4 4 4 3 3 2 1 -0 -0 -0 -1 -1 -1 -0 -0 0 0
14 13 13 13 12 12 12 12 12 11 11 11 11 10 10 9 9 8 7 6 6 5 5 4 4 4 3 3 3 2 1 1 -1 -1 -1 -1 -1 -1 -1 -1 -1 -1 -0
14 13 13 12 12 12 12 11 11 11 11 11 10 10 9 8 8 7 7 6 5 5 4 4 4 3 3 2 2 1 0 -1 -1 -2 -2 -2 -2 -2 -2 -2 -1 -1 -1
14 13 12 12 12 11 11 11 11 10 10 10 10 9 8 8 7 6 5 5 5 5 4 4 3 3 2 1 1 -0 -1 -1 -2 -3 -3 -3 -3 -3 -3 -3 -3 -2 -2
14 13 12 11 11 11 11 10 10 10 9 9 9 8 7 7 6 5 4 3 3 3 4 4 2 1 1 -0 -1 -1 -1 -2 -2 -3 -4 -4 -4 -4 -4 -4 -4 -3 -3
14 13 12 11 11 10 10 9 9 9 8 8 8 7 6 6 5 4 3 2 1 1 1 2 1 1 -1 -1 -2 -2 -2 -2 -3 -3 -4 -5 -5 -5 -5 -5 -4 -4 -4
13 12 11 10 10 9 9 9 8 8 8 7 7 6 5 5 4 3 2 1 -1 -2 -2 -0 -0 -1 -2 -2 -2 -3 -3 -4 -4 -4 -5 -5 -6 -6 -5 -5 -5 -5 -5
12 11 10 10 9 8 8 8 7 7 7 6 6 5 4 4 3 2 1 0 -1 -3 -4 -3 -2 -2 -2 -3 -3 -4 -4 -4 -4 -5 -5 -6 -6 -6 -6 -6 -5 -5 -5
11 10 9 9 8 7 7 6 6 6 6 5 5 4 3 3 2 1 0 -1 -2 -3 -4 -4 -3 -3 -3 -3 -3 -4 -4 -5 -5 -5 -6 -6 -6 -6 -6 -6 -6 -6 -5
9 8 8 7 7 6 6 6 5 5 4 4 3 3 2 2 1 0 -0 -1 -2 -3 -4 -5 -5 -5 -5 -5 -5 -5 -6 -6 -6 -5 -6 -6 -6 -6 -6 -6 -6 -6 -6
8 7 6 6 6 5 5 5 4 4 3 3 2 2 1 1 0 -0 -1 -2 -3 -4 -5 -6 -6 -6 -6 -6 -6 -6 -7 -6 -6 -6 -6 -6 -5 -6 -6 -6 -6 -6 -6
6 5 5 5 5 4 4 4 3 3 2 2 1 1 0 -0 -1 -1 -2 -3 -4 -5 -6 -7 -7 -7 -7 -7 -7 -8 -8 -7 -6 -6 -6 -6 -6 -6 -5 -5 -6 -6 -5
5 4 4 4 4 3 3 3 2 2 1 1 1 0 -0 -1 -2 -3 -4 -5 -6 -7 -7 -7 -8 -8 -8 -8 -8 -8 -9 -8 -7 -6 -6 -6 -6 -6 -5 -5 -5 -5 -5
3 3 3 3 3 2 2 2 1 1 1 0 -0 -1 -1 -2 -3 -4 -5 -6 -7 -7 -8 -8 -8 -9 -8 -8 -8 -9 -9 -9 -9 -8 -8 -7 -7 -6 -6 -6 -6 -6 -6
2 2 2 2 2 1 1 1 1 0 -0 -1 -1 -1 -2 -3 -4 -4 -5 -6 -7 -7 -8 -8 -9 -9 -9 -9 -9 -9 -9 -9 -9 -8 -8 -8 -7 -6 -6 -6 -6 -6 -6
2 2 1 1 1 1 0 0 -0 -1 -1 -1 -2 -3 -3 -4 -4 -5 -7 -7 -7 -7 -8 -8 -8 -9 -9 -9 -9 -9 -9 -9 -9 -7 -8 -9 -7 -7 -7 -6 -5 -5 -5
1 1 1 0 0 -0 -0 -1 -1 -1 -2 -2 -3 -4 -5 -5 -5 -7 -8 -8 -8 -7 -7 -8 -8 -8 -8 -8 -8 -9 -9 -9 -10 -8 -8 -9 -8 -8 -7 -6 -5 -5 -5
0 0 -0 -0 -1 -1 -1 -2 -2 -3 -3 -3 -4 -4 -5 -6 -7 -8 -8 -8 -8 -8 -8 -8 -7 -7 -7 -7 -7 -8 -9 -10 -10 -10 -8 -9 -9 -10 -10 -8 -7 -6 -6
Wind_Speed
5 7 7 9 8 8 6 5 5 5 6 7 7 8 8 9 10 11 12 13 12 10 9 9 9 9 9 9 9 10 10 10 11 11 11 12 12 12 13 13 13 13 14
9 7 6 6 7 8 8 7 6 6 5 5 6 7 7 9 10 11 11 12 11 10 8 8 8 9 9 10 10 10 10 11 11 11 12 12 12 13 13 14 14 15 15
14 10 6 5 8 10 10 8 7 6 4 4 4 4 5 7 8 10 11 11 10 9 7 7 7 8 9 10 11 11 11 11 11 12 12 12 13 14 14 15 16 16 16
17 12 7 6 10 12 9 5 5 4 4 4 3 2 3 5 7 9 9 10 9 8 6 5 6 7 9 11 12 12 12 11 11 12 13 13 14 15 16 16 17 17 18
18 13 8 8 12 9 5 6 4 3 3 3 2 2 2 2 4 7 7 8 8 7 6 4 4 5 7 10 12 13 13 12 12 12 13 14 15 16 17 18 19 19 20
17 14 9 10 11 7 6 5 5 4 3 2 2 3 2 1 2 4 5 7 7 6 6 4 3 2 5 9 12 13 13 13 13 14 15 15 16 17 18 20 20 21 21
17 13 9 9 8 8 8 8 5 5 3 2 3 2 3 2 1 1 2 3 3 4 4 3 1 2 5 8 10 13 13 14 14 15 16 17 18 19 20 22 22 22 22
16 14 12 11 9 8 9 7 5 4 3 2 3 3 1 2 2 1 0 2 1 3 2 1 2 4 6 8 9 12 13 14 15 17 18 19 20 21 23 24 24 24 24
15 14 13 11 10 9 9 8 7 7 4 2 2 3 4 4 2 2 2 2 2 1 1 3 5 8 9 9 10 11 13 15 17 18 20 22 23 24 25 25 25 25 25
12 14 14 12 11 8 9 8 6 5 6 4 2 3 2 3 2 2 3 2 2 1 2 3 7 10 10 10 10 12 14 16 18 21 23 24 25 26 26 26 26 26 26
8 11 13 11 11 9 9 8 7 6 4 5 4 3 3 3 2 2 3 4 3 3 3 4 6 7 9 10 11 13 17 19 21 23 24 26 27 27 27 27 27 27 27
7 9 11 10 10 9 9 9 7 8 5 6 5 3 3 3 2 2 3 3 4 4 3 4 3 4 6 7 11 17 20 21 22 24 26 27 27 27 27 27 27 27 28
7 10 11 10 10 9 9 8 8 8 7 7 5 4 3 3 3 3 2 2 3 3 3 3 3 4 3 7 14 21 20 22 24 26 27 28 28 27 27 27 28 28 28
9 10 11 11 11 11 10 9 8 7 6 6 6 5 3 3 3 3 3 2 2 3 3 5 3 3 4 11 17 21 18 23 26 27 27 27 27 27 27 27 27 28 28
11 12 12 12 11 10 10 9 7 7 7 5 5 4 3 2 2 2 3 4 3 3 4 4 3 3 8 14 18 18 17 24 27 27 26 26 26 27 27 28 28 27 28
14 14 14 13 12 11 10 9 7 7 6 4 3 4 2 2 2 2 3 3 4 5 5 4 5 5 10 16 21 20 20 26 25 26 26 27 27 28 28 27 27 28 28
15 15 15 14 13 11 9 8 7 7 6 4 3 3 2 2 2 3 3 3 4 4 8 7 5 5 7 10 15 19 20 19 20 25 27 28 28 28 28 28 28 28 28
14 14 14 13 12 11 9 8 7 6 5 3 1 1 2 2 3 3 3 4 5 5 6 10 7 5 8 10 10 11 16 18 18 25 27 28 28 28 28 28 28 28 28
14 14 13 13 12 10 9 8 7 6 4 3 1 1 2 3 4 4 5 5 5 6 6 8 10 6 6 8 10 11 11 11 17 21 24 26 27 27 28 28 29 29 29
15 14 13 12 11 10 9 8 7 6 5 3 2 2 3 3 5 6 6 7 7 7 7 7 9 8 8 8 7 9 12 8 11 15 20 23 24 26 27 29 29 29 29
15 14 13 12 11 8 7 7 6 5 4 2 3 3 4 6 8 7 6 6 5 5 6 7 9 10 10 9 9 9 14 12 11 11 10 10 11 12 16 24 26 27 28
14 13 12 11 9 7 10 9 6 4 3 2 3 4 5 6 9 12 14 15 13 9 8 7 9 12 13 11 11 12 14 15 13 4 6 12 10 12 10 11 24 28 29
12 11 10 9 8 8 9 7 7 4 2 2 3 4 4 6 9 7 11 15 14 17 17 12 12 13 14 13 14 15 14 14 15 11 12 16 11 13 11 17 27 30 31
10 9 8 8 7 6 7 5 5 4 2 1 2 3 5 6 8 10 8 7 8 9 14 11 11 13 13 12 13 14 14 13 13 11 9 13 13 13 13 10 26 29 28
9 7 6 6 6 4 5 3 3 2 1 3 4 5 6 7 14 17 10 9 10 10 16 21 22 21 24 25 19 11 9 12 14 12 7 6 7 10 12 13 15 22 22
8 7 6 5 4 2 1 1 1 2 2 3 4 5 9 12 15 17 10 9 11 11 11 12 13 17 15 16 19 10 8 11 12 9 4 4 6 7 8 5 7 9 14
Wind_Direction
182 183 187 183 183 178 166 150 135 118 105 96 95 103 112 119 116 107 102 101 99 96 87 74 60 46 34 25 19 13 8 5 2 359 356 354 351 348 345 341 338 334 331
185 182 179 176 178 174 163 148 135 117 102 96 84 93 112 126 126 121 114 109 107 102 90 72 55 40 28 18 10 6 4 1 358 355 352 349 345 342 339 335 332 329 324
184 180 173 172 172 163 145 126 116 105 92 84 78 84 107 131 137 136 129 123 117 110 98 78 54 38 25 13 4 359 357 356 353 349 346 343 341 338 334 331 327 323 319
182 174 169 169 160 149 138 127 121 98 84 83 79 66 96 129 145 149 146 143 138 129 116 94 62 37 21 9 360 353 349 347 345 342 339 337 335 332 329 326 323 319 315
178 169 164 157 150 140 134 133 113 115 105 96 99 92 97 129 147 156 161 166 163 153 139 114 81 44 17 3 355 348 341 339 337 335 332 330 327 326 324 322 318 314 310
173 163 156 153 147 138 134 128 118 93 99 109 86 68 51 95 135 155 168 173 176 168 156 135 105 40 5 355 349 342 336 333 330 327 325 324 322 321 320 317 314 310 307
169 161 156 153 151 150 149 138 121 108 83 80 95 58 19 28 84 134 159 162 170 164 153 142 130 334 334 340 341 335 330 326 323 321 319 318 317 317 316 313 310 307 304
169 165 159 161 155 145 144 147 136 123 98 67 126 119 52 339 344 26 60 152 132 113 100 69 348 329 321 318 319 326 323 319 317 315 314 314 313 313 312 309 306 304 302
167 164 161 157 156 154 159 157 147 138 138 86 74 142 153 216 284 331 14 56 92 95 46 10 351 335 328 321 317 315 315 314 312 311 311 311 311 310 308 306 304 302 301
162 160 158 155 155 152 153 154 147 140 135 138 104 68 103 137 154 297 325 356 11 55 5 348 336 330 337 337 333 327 322 317 312 311 310 310 309 308 306 305 303 302 301
154 155 154 151 151 149 147 140 137 130 129 142 143 129 103 79 96 155 277 315 328 314 314 309 315 327 346 354 351 338 328 320 315 312 311 309 307 306 304 303 303 302 301
149 152 150 149 146 145 143 138 133 128 124 124 122 124 136 140 149 162 225 275 289 289 292 291 295 319 347 4 354 337 327 320 316 312 309 307 305 305 304 303 302 300 298
162 161 153 149 144 139 134 129 127 123 121 124 122 118 123 133 139 151 176 250 284 294 301 296 258 303 342 348 338 327 321 317 313 310 307 305 305 305 304 301 299 297 296
157 153 148 145 140 137 134 129 124 121 118 118 119 125 128 136 144 158 170 180 293 297 282 274 287 279 311 330 323 319 314 313 310 307 305 305 304 303 301 299 298 296 295
146 146 143 140 138 134 133 128 125 123 121 119 129 134 137 153 157 168 167 168 194 270 283 269 281 279 309 314 312 312 308 309 307 306 305 303 302 301 300 298 297 296 295
148 147 144 140 135 131 130 124 125 126 123 127 138 145 155 177 183 187 191 195 193 216 258 260 260 279 300 306 309 312 306 307 307 305 302 302 301 300 299 298 298 296 295
148 148 145 140 136 132 129 127 127 126 125 126 132 158 200 202 210 217 214 216 220 216 261 275 262 281 288 291 301 301 301 298 296 301 302 301 300 300 300 299 297 296 295
143 141 138 135 132 128 127 126 126 121 124 131 134 157 246 242 236 236 234 239 242 234 249 281 286 281 278 283 288 291 300 299 296 299 300 300 300 300 299 297 297 297 296
135 132 131 129 126 122 117 113 113 110 106 98 79 283 273 262 263 260 254 252 253 260 250 274 289 285 283 287 291 291 290 288 293 297 299 299 298 297 297 298 298 298 297
130 127 123 119 117 115 112 110 108 101 89 66 32 339 298 273 264 264 261 256 258 264 268 275 287 292 290 289 288 297 302 290 292 295 293 292 294 296 296 296 296 296 295
119 117 114 111 110 110 113 113 107 98 81 38 1 340 319 304 292 285 279 267 264 263 270 280 291 298 299 302 301 300 302 301 291 283 280 282 286 284 287 290 292 292 290
111 111 113 115 113 114 119 114 110 100 77 30 348 335 322 314 313 318 311 304 298 292 293 289 295 297 298 296 297 298 299 302 301 273 285 295 289 286 284 279 288 291 292
107 108 110 113 114 121 122 116 107 107 80 23 339 326 325 323 330 303 301 303 299 299 298 297 293 290 291 292 292 293 291 291 294 296 298 295 290 288 286 288 292 293 293
110 112 115 119 121 129 130 124 115 112 97 331 306 298 297 298 305 305 289 287 280 283 288 287 277 278 281 282 281 289 295 296 291 285 279 286 289 288 289 284 290 289 290
113 116 120 122 125 138 151 143 125 147 251 292 293 296 306 297 309 315 312 299 293 290 298 298 296 296 299 302 304 302 299 300 298 295 279 270 281 292 290 282 279 284 288
117 117 112 114 125 136 160 171 75 164 285 299 300 297 315 318 315 317 311 301 301 299 297 300 302 303 299 297 300 291 283 290 294 295 258 259 286 308 298 259 257 275 285
Height
1528 1529 1531 1532 1534 1535 1536 1536 1537 1537 1537 1537 1537 1537 1536 1536 1535 1535 1534 1533 1533 1532 1531 1530 1529 1528 1528 1527 1525 1524 1523 1521 1520 1519 1518 1517 1516 1515 1514 1513 1512 1512 1512
1526 1527 1529 1531 1532 1534 1535 1535 1536 1536 1536 1536 1536 1535 1535 1534 1534 1533 1532 1532 1531 1530 1530 1529 1528 1527 1526 1525 1523 1522 1520 1519 1517 1516 1515 1513 1512 1511 1510 1509 1508 1508 1507
1523 1525 1527 1529 1530 1532 1533 1534 1534 1535 1535 1535 1535 1534 1533 1533 1532 1531 1531 1530 1530 1529 1528 1527 1526 1525 1524 1523 1521 1520 1518 1516 1514 1513 1511 1510 1508 1507 1506 1505 1504 1503 1502
1521 1523 1525 1527 1529 1530 1531 1532 1533 1533 1533 1533 1533 1532 1532 1531 1530 1529 1529 1529 1528 1527 1526 1526 1525 1523 1522 1520 1519 1517 1515 1513 1511 1509 1508 1506 1505 1503 1502 1500 1499 1498 1497
1518 1520 1522 1524 1526 1527 1529 1530 1531 1531 1532 1532 1531 1531 1530 1529 1528 1528 1527 1527 1526 1526 1524 1523 1522 1521 1519 1517 1515 1513 1511 1509 1507 1505 1504 1502 1500 1499 1497 1496 1494 1493 1492
1514 1517 1519 1521 1523 1525 1526 1527 1529 1529 1530 1530 1529 1529 1528 1527 1526 1525 1525 1525 1524 1523 1522 1521 1520 1518 1516 1514 1512 1510 1507 1505 1503 1501 1499 1498 1496 1494 1492 1490 1489 1488 1486
1511 1513 1515 1517 1519 1521 1523 1525 1526 1527 1527 1527 1527 1526 1525 1524 1524 1523 1523 1522 1522 1520 1519 1518 1516 1515 1513 1510 1508 1505 1503 1501 1499 1497 1495 1493 1491 1489 1487 1485 1483 1482 1481
1506 1508 1510 1513 1515 1518 1519 1521 1522 1523 1524 1524 1524 1523 1523 1523 1521 1520 1520 1519 1519 1518 1516 1515 1513 1511 1508 1506 1503 1501 1498 1496 1494 1492 1490 1488 1486 1484 1481 1479 1478 1476 1474
1500 1503 1506 1509 1511 1514 1515 1517 1519 1520 1520 1521 1520 1521 1519 1519 1519 1518 1516 1516 1515 1514 1513 1511 1509 1507 1504 1501 1498 1496 1493 1490 1488 1486 1485 1483 1480 1478 1475 1473 1471 1469 1468
1495 1498 1501 1504 1506 1509 1511 1513 1515 1516 1516 1516 1516 1516 1516 1516 1516 1514 1514 1512 1511 1511 1509 1508 1505 1503 1499 1496 1493 1490 1488 1485 1482 1481 1479 1476 1473 1471 1468 1466 1464 1462 1460
1489 1492 1496 1499 1501 1504 1507 1509 1510 1511 1512 1512 1512 1512 1512 1512 1511 1511 1509 1509 1508 1507 1505 1503 1500 1498 1494 1491 1488 1485 1482 1479 1476 1474 1471 1468 1466 1463 1461 1458 1456 1454 1452
1483 1487 1490 1493 1496 1499 1502 1504 1506 1507 1508 1508 1508 1508 1508 1507 1507 1506 1504 1502 1501 1500 1499 1497 1495 1492 1489 1485 1482 1479 1475 1472 1469 1466 1463 1460 1458 1455 1452 1450 1447 1445 1443
1476 1480 1484 1488 1491 1494 1497 1499 1501 1502 1503 1504 1504 1504 1504 1503 1503 1502 1500 1498 1495 1492 1491 1490 1488 1486 1483 1479 1476 1473 1469 1465 1461 1458 1455 1452 1449 1446 1443 1441 1439 1437 1435
1471 1474 1479 1483 1487 1490 1493 1495 1497 1498 1499 1500 1500 1500 1500 1499 1498 1497 1496 1494 1490 1486 1484 1483 1482 1480 1476 1473 1469 1465 1461 1457 1453 1450 1446 1443 1440 1437 1435 1432 1430 1428 1426
1465 1469 1474 1478 1482 1485 1488 1491 1493 1494 1496 1496 1496 1497 1496 1495 1495 1493 1492 1490 1488 1483 1478 1476 1475 1473 1470 1466 1462 1457 1453 1449 1445 1442 1438 1435 1432 1429 1427 1424 1422 1419 1417
1460 1464 1469 1473 1477 1481 1484 1487 1489 1491 1492 1493 1493 1493 1492 1492 1490 1489 1487 1485 1483 1480 1474 1470 1469 1467 1463 1459 1455 1450 1445 1441 1437 1434 1430 1427 1424 1421 1418 1416 1413 1410 1408
1455 1460 1464 1469 1473 1477 1481 1484 1486 1487 1488 1489 1489 1489 1488 1487 1486 1484 1482 1480 1478 1474 1468 1463 1462 1459 1455 1451 1447 1443 1438 1433 1429 1426 1422 1419 1416 1413 1410 1407 1404 1401 1399
1451 1455 1460 1465 1470 1474 1478 1481 1483 1484 1485 1486 1486 1485 1484 1483 1481 1479 1477 1474 1472 1468 1464 1457 1453 1451 1447 1443 1439 1434 1430 1426 1422 1418 1414 1411 1407 1404 1401 1398 1395 1392 1389
1447 1453 1458 1463 1468 1472 1476 1478 1480 1481 1482 1483 1482 1481 1480 1478 1476 1473 1471 1468 1465 1462 1458 1452 1446 1443 1440 1436 1431 1426 1422 1418 1414 1410 1406 1402 1399 1396 1393 1389 1386 1382 1379
1445 1451 1457 1462 1467 1471 1474 1476 1477 1478 1479 1479 1478 1477 1475 1473 1470 1468 1465 1462 1459 1455 1452 1447 1441 1436 1433 1429 1425 1419 1413 1409 1405 1402 1398 1395 1391 1388 1384 1380 1376 1372 1369
1445 1451 1456 1461 1466 1469 1472 1473 1475 1475 1476 1475 1474 1473 1471 1468 1465 1462 1459 1456 1453 1449 1445 1441 1435 1430 1426 1422 1418 1413 1407 1401 1396 1394 1389 1385 1382 1377 1374 1370 1366 1363 1359
1446 1452 1457 1462 1465 1468 1470 1471 1472 1473 1472 1471 1470 1468 1466 1463 1459 1456 1453 1451 1448 1444 1440 1436 1430 1426 1420 1417 1412 1407 1402 1395 1389 1386 1382 1376 1374 1368 1365 1361 1357 1353 1349
1448 1454 1458 1462 1464 1466 1468 1469 1470 1470 1468 1467 1465 1463 1460 1457 1453 1450 1447 1444 1441 1438 1435 1432 1425 1420 1415 1411 1407 1401 1397 1391 1385 1380 1376 1366 1364 1359 1355 1351 1348 1344 1340
1451 1455 1459 1462 1464 1465 1467 1467 1467 1466 1465 1463 1460 1457 1454 1451 1448 1444 1440 1437 1434 1431 1428 1424 1419 1414 1410 1406 1402 1397 1391 1384 1377 1373 1370 1360 1354 1350 1345 1341 1338 1335 1331
1453 1457 1460 1462 1463 1464 1465 1464 1463 1462 1460 1458 1456 1452 1449 1445 1442 1438 1435 1431 1427 1424 1421 1417 1413 1409 1405 1401 1396 1390 1384 1377 1369 1364 1362 1355 1346 1340 1333 1329 1327 1325 1321
1455 1458 1460 1462 1462 1462 1462 1461 1460 1458 1456 1453 1451 1448 1444 1440 1437 1434 1430 1426 1421 1417 1413 1409 1405 1402 1398 1394 1390 1385 1378 1372 1364 1356 1352 1348 1340 1335 1322 1315 1315 1314 1311